EW6288 Weather Reports


Display with metric or nautical units.
time (UTC)temp
F
wind
direction
speed
MPH
gust
MPH
rain 1hr
in
rain 24hr
in
rain mn
in
humidity
%
barometer
mb
20260905171417 91 249 3.0 7.0 0.00 0.00 0.00 72 1013.7
20260905171149 90 251 2.0 7.0 0.00 0.00 0.00 74 1013.7
20260905170416 90 254 1.0 4.0 0.00 0.00 0.00 76 1013.7
20260905165916 90 297 1.0 3.0 0.00 0.00 0.00 74 1013.7
20260905165418 90 0 1.0 4.0 0.00 0.00 0.00 74 1013.7
20260905165142 90 5 1.0 4.0 0.00 0.00 0.00 73 1013.7
20260905164414 89 82 1.0 3.0 0.00 0.00 0.00 76 1013.8
20260905163911 89 112 1.0 3.0 0.00 0.00 0.00 76 1013.9
20260905163413 88 130 1.0 3.0 0.00 0.00 0.00 77 1013.9
20260905162912 87 95 0.0 2.0 0.00 0.00 0.00 80 1014.0
20260905162411 85 71 0.0 0.0 0.00 0.00 0.00 82 1014.0
20260905161909 84 71 0.0 0.0 0.00 0.00 0.00 86 1014.0
20260905161639 83 71 0.0 2.0 0.00 0.00 0.00 87 1013.9
20260905160917 83 71 0.0 2.0 0.00 0.00 0.00 87 1013.9
20260905160409 83 71 1.0 2.0 0.00 0.00 0.00 87 1014.0
20260905155911 83 71 1.0 2.0 0.00 0.00 0.00 87 1014.0
20260905155411 83 56 0.0 2.0 0.00 0.00 0.00 88 1013.9
20260905154909 83 14 0.0 3.0 0.00 0.00 0.00 88 1013.9
20260905154409 83 14 0.0 3.0 0.00 0.00 0.00 88 1014.0
20260905153911 83 17 1.0 3.0 0.00 0.00 0.00 89 1013.9
20260905153410 83 17 1.0 3.0 0.00 0.00 0.00 89 1014.0
20260905152908 83 355 1.0 3.0 0.00 0.00 0.00 89 1014.0
20260905152410 82 351 1.0 3.0 0.00 0.00 0.00 89 1014.0
20260905151909 82 349 2.0 4.0 0.00 0.00 0.00 89 1014.0
20260905151641 82 322 1.0 4.0 0.00 0.00 0.00 89 1014.0
20260905150910 82 187 1.0 4.0 0.00 0.00 0.00 90 1014.1
20260905150408 82 175 1.0 4.0 0.00 0.00 0.00 90 1014.0
20260905150141 82 148 0.0 2.0 0.00 0.00 0.00 89 1014.0
20260905145643 82 240 0.0 3.0 0.00 0.00 0.00 90 1014.0
20260905144908 82 240 1.0 3.0 0.00 0.00 0.00 90 1014.0
20260905144407 82 240 1.0 4.0 0.00 0.00 0.00 90 1014.1
20260905144139 82 243 1.0 4.0 0.00 0.00 0.00 90 1013.9
20260905143637 82 171 0.0 2.0 0.00 0.00 0.00 90 1013.9
20260905142906 82 171 0.0 2.0 0.00 0.00 0.00 89 1013.9
20260905142410 82 165 0.0 1.0 0.00 0.00 0.00 89 1014.0
20260905142405 82 165 0.0 2.0 0.00 0.00 0.00 89 1013.9
20260905141404 82 165 0.0 0.0 0.00 0.00 0.00 89 1013.9
20260905140905 81 165 0.0 0.0 0.00 0.00 0.00 89 1013.9
20260905140406 81 153 0.0 0.0 0.00 0.00 0.00 89 1013.9
20260905135906 81 153 0.0 0.0 0.00 0.00 0.00 89 1013.8
20260905135402 81 0 0.0 0.0 0.00 0.00 0.00 89 1013.8
20260905134905 81 0 0.0 0.0 0.00 0.00 0.00 89 1013.7
20260905134405 81 0 0.0 0.0 0.00 0.00 0.00 89 1013.7
20260905134131 80 0 0.0 0.0 0.00 0.00 0.00 89 1013.7
20260905133401 80 0 0.0 0.0 0.00 0.00 0.00 89 1013.7
20260905132902 80 0 0.0 0.0 0.00 0.00 0.00 89 1013.7
20260905132632 80 0 0.0 0.0 0.00 0.00 0.00 89 1013.7
20260905131902 80 0 0.0 0.0 0.00 0.00 0.00 89 1013.7
20260905131403 80 0 0.0 0.0 0.00 0.00 0.00 88 1013.6
20260905130857 80 0 0.0 0.0 0.00 0.00 0.00 88 1013.7
20260905130355 79 0 0.0 0.0 0.00 0.00 0.00 88 1013.7
20260905125856 79 0 0.0 0.0 0.00 0.00 0.00 88 1013.7
20260905125353 79 0 0.0 0.0 0.00 0.00 0.00 88 1013.6
20260905124851 79 0 0.0 0.0 0.00 0.00 0.00 88 1013.6
20260905124352 79 0 0.0 0.0 0.00 0.00 0.00 88 1013.5
20260905123849 79 0 0.0 0.0 0.00 0.00 0.00 88 1013.4
20260905123349 79 0 0.0 0.0 0.00 0.00 0.00 88 1013.4
20260905122849 79 0 0.0 0.0 0.00 0.00 0.00 88 1013.2
20260905122616 79 0 0.0 0.0 0.00 0.00 0.00 88 1013.1
20260905121844 79 0 0.0 0.0 0.00 0.00 0.00 88 1013.2
20260905121344 79 0 0.0 0.0 0.00 0.00 0.00 88 1013.2
20260905120844 79 0 0.0 0.0 0.00 0.00 0.00 88 1013.1
20260905120342 79 0 0.0 0.0 0.00 0.00 0.00 88 1013.0
20260905120111 79 0 0.0 0.0 0.00 0.00 0.00 88 1013.0
20260905115337 79 0 0.0 0.0 0.00 0.00 0.00 88 1012.9
20260905114835 79 0 0.0 0.0 0.00 0.00 0.00 88 1012.8
20260905114337 79 0 0.0 0.0 0.00 0.00 0.00 88 1012.8
20260905113835 79 0 0.0 0.0 0.00 0.00 0.00 88 1012.7
20260905113336 79 0 0.0 0.0 0.00 0.00 0.00 88 1012.6
20260905113106 79 0 0.0 0.0 0.00 0.00 0.00 88 1012.5
20260905112335 79 0 0.0 0.0 0.00 0.00 0.00 87 1012.5
20260905111834 79 0 0.0 0.0 0.00 0.00 0.00 87 1012.5
20260905111332 79 0 0.0 0.0 0.00 0.00 0.00 87 1012.4
20260905110826 79 0 0.0 0.0 0.00 0.00 0.00 87 1012.4
20260905110327 80 0 0.0 0.0 0.00 0.00 0.00 87 1012.3
20260905105832 80 0 0.0 0.0 0.00 0.00 0.00 87 1012.2
20260905105828 80 0 0.0 0.0 0.00 0.00 0.00 87 1012.2
20260905104826 80 0 0.0 0.0 0.00 0.00 0.00 87 1012.2
20260905104323 80 0 0.0 0.0 0.00 0.00 0.00 87 1012.1
20260905104051 80 0 0.0 0.0 0.00 0.00 0.00 87 1012.2
20260905103552 80 0 0.0 0.0 0.00 0.00 0.00 87 1012.2
20260905102818 80 0 0.0 0.0 0.00 0.00 0.00 87 1012.3
20260905102321 80 0 0.0 0.0 0.00 0.00 0.00 87 1012.2
20260905101816 80 0 0.0 0.0 0.00 0.00 0.00 87 1012.3
20260905101544 80 0 0.0 0.0 0.00 0.00 0.00 87 1012.3
20260905100812 80 0 0.0 0.0 0.00 0.00 0.00 87 1012.4
20260905100311 80 0 0.0 0.0 0.00 0.00 0.00 87 1012.4
20260905095810 80 0 0.0 0.0 0.00 0.00 0.00 87 1012.4
20260905095305 80 0 0.0 0.0 0.00 0.00 0.00 87 1012.4
20260905094800 80 0 0.0 0.0 0.00 0.00 0.00 87 1012.3
20260905094258 80 0 0.0 0.0 0.00 0.00 0.00 87 1012.3
20260905093757 80 0 0.0 0.0 0.00 0.00 0.00 87 1012.3
20260905093257 80 0 0.0 0.0 0.00 0.00 0.00 87 1012.3
20260905092759 80 0 0.0 0.0 0.00 0.00 0.00 87 1012.2
20260905092259 80 0 0.0 0.0 0.00 0.00 0.00 87 1012.2
20260905091756 80 0 0.0 0.0 0.00 0.00 0.00 87 1012.2
20260905091256 80 0 0.0 0.0 0.00 0.00 0.00 87 1012.2
20260905090756 80 0 0.0 0.0 0.00 0.00 0.00 87 1012.2
20260905090256 80 0 0.0 0.0 0.00 0.00 0.00 87 1012.1
20260905085756 80 0 0.0 0.0 0.00 0.00 0.00 87 1012.1
20260905085256 80 0 0.0 0.0 0.00 0.00 0.00 87 1012.2
20260905085029 80 0 0.0 0.0 0.00 0.00 0.00 87 1012.1
20260905084256 80 0 0.0 0.0 0.00 0.00 0.00 87 1012.1
20260905083755 80 0 0.0 0.0 0.00 0.00 0.00 86 1012.1
20260905083528 80 0 0.0 0.0 0.00 0.00 0.00 86 1012.1
20260905082754 80 0 0.0 0.0 0.00 0.00 0.00 86 1012.1
20260905082251 80 0 0.0 0.0 0.00 0.00 0.00 87 1012.1
20260905081752 80 0 0.0 0.0 0.00 0.00 0.00 87 1012.0
20260905081249 80 0 0.0 0.0 0.00 0.00 0.00 87 1012.1
20260905080749 81 0 0.0 0.0 0.00 0.00 0.00 86 1012.1
20260905080252 81 0 0.0 0.0 0.00 0.00 0.00 87 1012.1
20260905075751 81 0 0.0 0.0 0.00 0.00 0.00 86 1012.2
20260905075249 81 0 0.0 0.0 0.00 0.00 0.00 86 1012.2
20260905074750 81 0 0.0 0.0 0.00 0.00 0.00 87 1012.2
20260905074519 81 0 0.0 0.0 0.00 0.00 0.00 86 1012.2
20260905074021 81 0 0.0 0.0 0.00 0.00 0.00 86 1012.3
20260905073249 81 0 0.0 0.0 0.00 0.00 0.00 87 1012.4
20260905073022 81 0 0.0 0.0 0.00 0.00 0.00 86 1012.5
20260905072249 81 0 0.0 0.0 0.00 0.00 0.00 87 1012.5
20260905072025 81 0 0.0 0.0 0.00 0.00 0.00 86 1012.5
20260905071248 81 0 0.0 0.0 0.00 0.00 0.00 86 1012.6
20260905070748 81 0 0.0 0.0 0.00 0.00 0.00 86 1012.5
20260905070522 81 0 0.0 0.0 0.00 0.00 0.00 86 1012.6
20260905065749 81 0 0.0 0.0 0.00 0.00 0.00 86 1012.7
20260905065248 81 0 0.0 0.0 0.00 0.00 0.00 86 1012.6
20260905064749 81 0 0.0 0.0 0.00 0.00 0.00 86 1012.6
20260905064248 81 0 0.0 0.0 0.00 0.00 0.00 86 1012.5
20260905064017 81 0 0.0 0.0 0.00 0.00 0.00 86 1012.7
20260905063246 82 0 0.0 0.0 0.00 0.00 0.00 86 1012.8
20260905062743 82 0 0.0 0.0 0.00 0.00 0.00 86 1012.8
20260905062244 82 0 0.0 0.0 0.00 0.00 0.00 86 1012.9
20260905061743 82 0 0.0 0.0 0.00 0.00 0.00 86 1013.0
20260905061516 82 0 0.0 0.0 0.00 0.00 0.00 86 1012.9
20260905061014 82 0 0.0 3.0 0.00 0.00 0.00 86 1012.9
20260905060244 82 0 0.0 3.0 0.00 0.00 0.00 86 1012.8
20260905055744 82 0 0.0 3.0 0.00 0.00 0.00 86 1012.8
20260905055247 82 0 0.0 3.0 0.00 0.00 0.00 86 1012.8
20260905054739 82 0 0.0 1.0 0.00 0.00 0.00 86 1012.9
20260905054509 82 0 0.0 1.0 0.00 0.00 0.00 86 1012.9
20260905053740 82 0 0.0 1.0 0.00 0.00 0.00 86 1013.0
20260905053240 82 0 0.0 2.0 0.00 0.00 0.00 86 1013.0
20260905052740 82 0 0.0 2.0 0.00 0.00 0.00 86 1013.1
20260905052240 82 0 0.0 2.0 0.00 0.00 0.00 86 1013.0
20260905051740 82 0 0.0 2.0 0.00 0.00 0.00 85 1013.1
20260905051240 82 0 0.0 1.0 0.00 0.00 0.00 85 1013.1
20260905050741 82 0 0.0 1.0 0.00 0.00 0.00 85 1013.0
20260905050240 82 0 0.0 1.0 0.00 0.00 0.00 85 1013.0
20260905045739 82 0 0.0 1.0 0.00 0.00 0.00 85 1013.0
20260905045240 82 0 0.0 1.0 0.00 0.00 0.00 85 1013.0
20260905045009 82 0 0.0 1.0 0.00 0.00 0.00 85 1013.0
20260905044240 82 0 0.0 1.0 0.00 0.00 0.00 85 1013.0
20260905043739 82 0 0.0 1.0 0.00 0.00 0.00 85 1013.0
20260905043509 82 0 0.0 1.0 0.00 0.00 0.00 86 1013.0
20260905042739 82 0 0.0 1.0 0.00 0.00 0.00 86 1013.0
20260905042238 82 0 0.0 1.0 0.00 0.00 0.00 86 1013.0
20260905041734 82 0 0.0 2.0 0.00 0.00 0.00 86 1013.0
20260905041234 82 0 0.0 2.0 0.00 0.00 0.00 86 1013.0
20260905041002 82 0 0.0 2.0 0.00 0.00 0.00 86 1013.1
20260905040232 82 0 1.0 3.0 0.00 0.00 0.00 85 1013.1
20260905035730 82 0 1.0 3.0 0.00 0.00 0.00 85 1013.2
20260905035229 82 0 0.0 3.0 0.00 0.00 0.00 85 1013.2
20260905034730 82 0 0.0 1.0 0.00 0.00 0.00 85 1013.3
20260905034459 82 0 0.0 1.0 0.00 0.00 0.00 85 1013.3
20260905033726 82 0 0.0 3.0 0.00 0.00 0.00 85 1013.3
20260905033229 82 0 0.0 4.0 0.00 0.00 0.00 85 1013.3
20260905032726 82 0 0.0 4.0 0.00 0.00 0.00 85 1013.2
20260905032220 82 0 1.0 4.0 0.00 0.00 0.00 85 1013.3
20260905032216 82 0 1.0 4.0 0.00 0.00 0.00 85 1013.3
20260905031214 82 0 1.0 3.0 0.00 0.00 0.00 85 1013.3
20260905030713 82 0 0.0 3.0 0.00 0.00 0.00 85 1013.3
20260905030213 82 0 0.0 3.0 0.00 0.00 0.00 85 1013.3
20260905025714 82 0 1.0 3.0 0.00 0.00 0.00 85 1013.2
20260905025214 82 0 1.0 3.0 0.00 0.00 0.00 84 1013.3
20260905024711 82 0 1.0 3.0 0.00 0.00 0.00 84 1013.2
20260905024440 82 0 1.0 3.0 0.00 0.00 0.00 83 1013.2
20260905023711 82 0 0.0 1.0 0.00 0.00 0.00 83 1013.0
20260905023706 82 0 0.0 1.0 0.00 0.00 0.00 83 1013.1
20260905022702 82 0 0.0 1.0 0.00 0.00 0.00 82 1013.0
20260905022202 82 0 0.0 1.0 0.00 0.00 0.00 82 1013.0
20260905021658 82 0 0.0 2.0 0.00 0.00 0.00 82 1013.0
20260905021157 82 0 0.0 2.0 0.00 0.00 0.00 82 1012.8
20260905020656 82 0 0.0 1.0 0.00 0.00 0.00 81 1012.8
20260905020151 83 0 0.0 1.0 0.00 0.00 0.00 81 1012.9
20260905015920 83 0 0.0 1.0 0.00 0.00 0.00 81 1012.8
20260905015148 83 0 0.0 1.0 0.00 0.00 0.00 80 1012.6
20260905014644 83 0 0.0 1.0 0.00 0.00 0.00 80 1012.6
20260905014146 83 0 0.0 1.0 0.00 0.00 0.00 80 1012.5
20260905013916 84 0 0.0 1.0 0.00 0.00 0.00 80 1012.5
20260905013409 84 0 0.0 1.0 0.00 0.00 0.00 80 1012.3
20260905012911 84 0 0.0 2.0 0.00 0.00 0.00 80 1012.2
20260905012411 85 0 1.0 5.0 0.00 0.00 0.00 80 1012.2
20260905011637 85 0 1.0 5.0 0.00 0.00 0.00 80 1012.3
20260905011135 86 0 1.0 3.0 0.00 0.00 0.00 80 1012.2
20260905010634 86 0 1.0 3.0 0.00 0.00 0.00 79 1012.3
20260905010134 86 0 1.0 3.0 0.00 0.00 0.00 79 1012.3
20260905005901 87 0 1.0 3.0 0.00 0.00 0.00 79 1012.3
20260905005132 87 0 0.0 3.0 0.00 0.00 0.00 79 1012.2
20260905004630 88 0 0.0 2.0 0.00 0.00 0.00 79 1012.2
20260905004134 88 0 0.0 2.0 0.00 0.00 0.00 78 1012.2
20260905003629 89 0 0.0 2.0 0.00 0.00 0.00 77 1012.1
20260905003128 89 0 0.0 3.0 0.00 0.00 0.00 76 1012.1
20260905002626 89 0 1.0 3.0 0.00 0.00 0.00 76 1012.1
20260905002123 90 0 1.0 3.0 0.00 0.00 0.00 76 1011.9
20260905001853 90 0 2.0 8.0 0.00 0.00 0.00 74 1011.7
20260905001123 90 84 2.0 8.0 0.00 0.00 0.00 72 1011.5
20260905000623 90 128 2.0 9.0 0.00 0.00 0.00 71 1011.5
20260905000355 90 121 2.0 9.0 0.00 0.00 0.00 71 1011.6
20260904235620 90 141 2.0 9.0 0.00 0.00 0.00 71 1011.6
20260904235120 90 167 3.0 9.0 0.00 0.00 0.00 71 1011.5
20260904234617 90 155 3.0 9.0 0.00 0.00 0.00 72 1011.5
20260904234119 90 163 2.0 7.0 0.00 0.00 0.00 72 1011.4
20260904233620 91 216 2.0 6.0 0.00 0.00 0.00 72 1011.5
20260904233116 91 152 2.0 6.0 0.00 0.00 0.00 72 1011.4
20260904232617 91 140 1.0 5.0 0.00 0.00 0.00 70 1011.5
20260904232118 91 128 2.0 4.0 0.00 0.00 0.00 70 1011.5
20260904231617 91 133 2.0 8.0 0.00 0.00 0.00 70 1011.4
20260904231115 90 117 1.0 8.0 0.00 0.00 0.00 72 1011.5
20260904230614 91 57 2.0 10.0 0.00 0.00 0.00 70 1011.4
20260904230115 92 169 2.0 10.0 0.00 0.00 0.00 69 1011.5
20260904225614 92 159 1.0 6.0 0.00 0.00 0.00 68 1011.5
20260904225345 91 121 0.0 3.0 0.00 0.00 0.00 67 1011.4
20260904224615 91 119 0.0 2.0 0.00 0.00 0.00 65 1011.3
20260904224116 91 119 0.0 1.0 0.00 0.00 0.00 64 1011.4
20260904223845 91 119 0.0 1.0 0.00 0.00 0.00 63 1011.4
20260904223115 92 119 0.0 1.0 0.00 0.00 0.00 62 1011.4
20260904222614 92 120 1.0 2.0 0.00 0.00 0.00 60 1011.5
20260904222114 92 119 1.0 7.0 0.00 0.00 0.00 64 1011.5
20260904221617 91 119 1.0 7.0 0.00 0.00 0.00 62 1011.5
20260904221346 90 121 1.0 7.0 0.00 0.00 0.00 66 1011.6
20260904220614 92 134 2.0 7.0 0.00 0.00 0.00 63 1011.7
20260904220114 92 136 1.0 6.0 0.00 0.00 0.00 65 1011.7
20260904215615 91 113 0.0 3.0 0.00 0.00 0.00 66 1011.7
20260904215118 92 149 1.0 3.0 0.00 0.00 0.00 66 1011.6
20260904214614 92 149 1.0 6.0 0.00 0.00 0.00 64 1011.7
20260904214116 92 159 1.0 6.0 0.00 0.00 0.00 64 1011.7
20260904213612 92 158 1.0 6.0 0.00 0.00 0.00 64 1011.7
20260904213345 92 164 1.0 6.0 0.00 0.00 0.00 64 1011.7
20260904212615 92 161 1.0 5.0 0.00 0.00 0.00 63 1011.9
20260904212110 92 162 1.0 5.0 0.00 0.00 0.00 65 1011.9
20260904211841 92 166 0.0 4.0 0.00 0.00 0.00 65 1012.0
20260904211117 91 281 1.0 3.0 0.00 0.00 0.00 66 1012.0
20260904211113 92 282 1.0 2.0 0.00 0.00 0.00 68 1012.0
20260904210340 91 281 1.0 3.0 0.00 0.00 0.00 66 1012.1
20260904205838 91 327 1.0 4.0 0.00 0.00 0.00 68 1012.2
20260904205106 91 327 2.0 4.0 0.00 0.00 0.00 67 1012.3
20260904204607 90 22 1.0 5.0 0.00 0.00 0.00 67 1012.4
20260904204106 89 159 1.0 5.0 0.00 0.00 0.00 71 1012.4
20260904203608 88 177 0.0 2.0 0.00 0.00 0.00 77 1012.5
20260904203104 88 177 0.0 2.0 0.00 0.00 0.00 74 1012.7
20260904202604 89 177 0.0 2.0 0.00 0.00 0.00 70 1012.8
20260904202108 89 177 0.0 3.0 0.00 0.00 0.00 72 1012.9
20260904201608 89 293 1.0 3.0 0.00 0.00 0.00 76 1013.0
20260904201603 89 296 1.0 3.0 0.00 0.00 0.00 74 1013.0
20260904200604 89 284 1.0 3.0 0.00 0.00 0.00 74 1012.9
20260904200105 89 307 1.0 6.0 0.00 0.00 0.00 77 1012.9
20260904195605 89 263 1.0 6.0 0.00 0.00 0.00 74 1013.1
20260904195104 88 262 2.0 6.0 0.00 0.00 0.00 77 1013.1
20260904194605 88 256 1.0 6.0 0.00 0.00 0.00 75 1013.2
20260904194104 88 163 0.0 2.0 0.00 0.00 0.00 77 1013.1
20260904193834 87 163 0.0 4.0 0.00 0.00 0.00 78 1013.3
20260904193337 87 163 1.0 4.0 0.00 0.00 0.00 78 1013.3
20260904192834 86 162 1.0 4.0 0.00 0.00 0.00 79 1013.4
20260904192101 86 162 1.0 4.0 0.00 0.00 0.00 79 1013.4
20260904191604 85 183 1.0 2.0 0.00 0.00 0.00 83 1013.4
20260904191103 85 183 0.0 2.0 0.00 0.00 0.00 85 1013.6
20260904190602 84 184 0.0 2.0 0.00 0.00 0.00 86 1013.7
20260904190101 83 183 1.0 2.0 0.00 0.00 0.00 86 1013.8
20260904185558 83 182 1.0 3.0 0.00 0.00 0.00 88 1013.9
20260904185058 82 183 1.0 3.0 0.00 0.00 0.00 88 1014.1
20260904184558 82 182 1.0 3.0 0.00 0.00 0.00 88 1014.2
20260904184059 82 182 1.0 3.0 0.00 0.00 0.00 88 1014.1
20260904183559 82 126 0.0 4.0 0.00 0.00 0.00 89 1014.1
20260904183054 81 0 1.0 4.0 0.00 0.00 0.00 88 1014.3
20260904182553 81 0 1.0 4.0 0.00 0.00 0.00 88 1014.5
20260904182323 82 0 1.0 4.0 0.00 0.00 0.00 88 1014.6
20260904181553 81 0 2.0 4.0 0.00 0.00 0.00 87 1014.9
20260904181053 82 0 1.0 4.0 0.00 0.00 0.00 87 1015.0
20260904180550 82 0 0.0 4.0 0.00 0.00 0.00 87 1015.0
20260904180320 82 0 0.0 0.0 0.00 0.00 0.00 87 1015.0
20260904175816 82 0 0.0 0.0 0.00 0.00 0.00 87 1015.1
20260904175045 82 0 0.0 0.0 0.00 0.00 0.00 87 1015.3
20260904174545 82 0 0.0 0.0 0.00 0.00 0.00 87 1015.2
20260904174044 82 0 0.0 0.0 0.00 0.00 0.00 86 1014.9
20260904173541 82 0 0.0 0.0 0.00 0.00 0.00 86 1014.8
20260904173040 82 0 0.0 0.0 0.00 0.00 0.00 86 1014.8
20260904172533 82 0 0.0 3.0 0.00 0.00 0.00 86 1014.9
20260904172031 82 0 0.0 3.0 0.00 0.00 0.00 86 1015.1
20260904171532 82 0 0.0 3.0 0.00 0.00 0.00 86 1015.2